Regional Weather Roundup
Issued by NWS

Home | Current Version | Previous Version | Graphics & Text | Print | Product List | Glossary On
Versions: 1 2 3 4 5 6 7 8 9 10 11 12 13 14 15 16 17 18 19 20 21 22 23 24 25 26 27
000
ASUS45 KBOU 170810
RWRCO

WEATHER ROUNDUP FOR COLORADO
NATIONAL WEATHER SERVICE DENVER/BOULDER CO
100 AM MST FRI NOV 17 2017

NOTE: "FAIR" INDICATES FEW OR NO CLOUDS BELOW 12000 FEET WITH NO
SIGNIFICANT WEATHER AND/OR OBSTRUCTIONS TO VISIBILITY.

COZ001>005-013-030-031-170900-
...NORTHWEST COLORADO...

CITY           SKY/WX    TMP DP  RH WIND       PRES   REMARKS
CRAIG          FAIR      54  25  32 SW22G38   29.77F
HAYDEN         FAIR      52  27  38 SW18G24   29.79F
MEEKER         CLOUDY    54  25  32 SW17G26   29.80F
RABBIT EARS PA CLOUDY    34  27  75 W8        29.93F WCI  27
STEAMBOAT SPGS CLOUDY    49  28  43 CALM      29.80F
WALDEN         CLOUDY    41  25  52 SW15      29.83F
$$

COZ006>008-011-170900-
...WEST CENTRAL VALLEYS...

CITY           SKY/WX    TMP DP  RH WIND       PRES   REMARKS
GRAND JUNCTION FAIR      57  26  30 SE14      29.82F
MONTROSE       FAIR      59  24  26 SW20G25   29.90F
EAGLE          MOCLDY    55  24  30 SW24G31   29.86F
RIFLE          FAIR      53  26  35 VRB3      29.82F
DELTA          FAIR      62  24  23 CALM      29.89F
NUCLA          FAIR      57  23  26 S10       29.97F
$$

COZ017>023-064>068-170900-
...SOUTHWEST COLORADO...

CITY           SKY/WX    TMP DP  RH WIND       PRES   REMARKS
DURANGO        CLOUDY    44  25  47 S3        30.06F
CORTEZ         FAIR      49  26  41 NE3       30.03R
PAGOSA SPRINGS CLOUDY    45  32  60 CALM      30.10F
TELLURIDE      CLOUDY    49  23  35 SW10G22   30.10F
WOLF CREEK PAS LGT SNOW  28  28 100 SW18G38   30.24F WCI  16
$$

COZ009-010-012-014-032>034-037-058>063-170900-
...CENTRAL COLORADO...

CITY           SKY/WX    TMP DP  RH WIND       PRES   REMARKS
ASPEN          CLOUDY    51  25  36 VRB5G20   29.92F
BUENA VISTA    CLOUDY    46  27  48 SE9G20    29.94F
COPPER MTN     LGT SNOW  34  27  75 MISG      30.05F
BERTHOUD PASS  LGT SNOW  27  16  63 W28G53    30.00F WCI  11
COTTONWOOD PAS CLOUDY    48  25  40 CALM      30.01F
GUNNISON       FAIR      36  34  92 CALM      29.99F
KREMMLING      FAIR      55  23  28 SW24G36   29.85F
LEADVILLE      CLOUDY    40  20  44 S13G20    29.98F
MONARCH PASS   LGT SNOW  30  25  80 SW56G66   30.16F WCI  11
SALIDA         MOCLDY    49  26  41 SW7       30.03F
SUNLIGHT       MOCLDY    34  21  60 SW25G41   30.02S WCI  21
WILKERSON PASS FAIR      32  23  69 SW14G23   30.05F WCI  22
$$

COZ069>075-170900-
...SAN LUIS VALLEY/SANGRE DE CRISTO MOUNTAINS...

CITY           SKY/WX    TMP DP  RH WIND       PRES   REMARKS
ALAMOSA        FAIR      44  28  53 SW14      30.02F
DEL NORTE      FAIR      46  28  47 W23G31    30.05S
LA VETA PASS   MOCLDY    39  21  48 S30G46      N/A
SAGUACHE       MOCLDY    32  27  80 NE3       30.03F
$$

COZ035-036-038>040-170900-
...NORTHERN COLORADO FRONT RANGE...

CITY           SKY/WX    TMP DP  RH WIND       PRES   REMARKS
DENVER INTL AP MOCLDY    58  27  30 SW18      29.70F
DMNS CITY PARK   N/A     58  26  29 SW9       29.72F
AURORA         PTCLDY    57  27  32 SW22      29.72F
FRONT RANGE AP FAIR      56  29  36 SW12      29.72F
ERIE MUNI ARPT FAIR      52  26  36 SW6       29.75F
BOULDER MUN AP FAIR      55  28  35 S3        29.70F
CENTENNIAL     FAIR      56  29  35 SW15      29.76F
BROOMFIELD     FAIR      54  27  35 SW9       29.74S
FORT COLLINS   FAIR      60  29  30 SW6       29.68F
LONGMONT       FAIR      47  31  55 W7        29.71F
$$

COZ041-046-047-076>085-087-088-170900-
...PIKES PEAK/PALMER DIVIDE AND SOUTHERN FOOTHILLS...

CITY           SKY/WX    TMP DP  RH WIND       PRES   REMARKS
COLO. SPRINGS  MOCLDY    61  25  25 VRB7      29.84F
A. F. ACADEMY  FAIR      58  22  24 W26G37    29.81S
SCHRIEVER AFB  FAIR      56  23  28 W21       29.79F
CHEYENNE MTN   FAIR      55  21  26 NE15G29   29.76S
ELLICOTT         N/A    N/A N/A N/A W25G36    29.80F
FALCON         FAIR      54  22  29 W23       29.82F
FORT CARSON    FAIR      60  24  25 W24G40    29.77F
LIMON          FAIR      45  28  51 W6        29.75F
MONUMENT HILL  FAIR      52  27  37 W33G43    29.82F
CANON CITY     FAIR      59  30  33 W14       29.81F
WALSENBURG     FAIR      61  25  25 W31G43    29.86S
TRINIDAD       FAIR      63  22  20 W21G32    29.85F
$$

COZ042>045-048>051-090-091-170900-
...NORTHEAST COLORADO...

CITY           SKY/WX    TMP DP  RH WIND       PRES   REMARKS
GREELEY ARPT   FAIR      61  30  31 SW9       29.68S
AKRON          FAIR      55  28  35 SW16      29.68F
BURLINGTON     FAIR      51  28  41 SW12      29.70F
WRAY           NOT AVBL
YUMA           FAIR      59  30  33 W16       29.65F
STERLING       FAIR      41  30  65 W5        29.64F
HOLYOKE        FAIR      43  32  65 CALM      29.65F
FORT MORGAN    FAIR      49  26  39 CALM      29.68S
$$

COZ086-089-092>099-170900-
...SOUTHEAST COLORADO...

CITY           SKY/WX    TMP DP  RH WIND       PRES   REMARKS
PUEBLO         FAIR      54  28  36 CALM      29.77F
LA JUNTA       FAIR      59  31  34 SW13      29.76F
LAMAR          FAIR      53  29  39 SW10      29.74F
SPRINGFIELD      N/A     49  29  46 SW7       29.82F
$$




USA.gov is the U.S. government's official web portal to all federal, state and local government web resources and services.